Snowfall_Accumulation
0.3 0.4 0.4 0.3 0.2 0.4 0.6 0.7 1.6 1.5 0.3 0.1 0.2 0.1 0.1 0.1 0.1 0.2 0.2 0.1 0.0 0.1 0.1 0.2 0.2 0.2 0.2 0.2 0.2 0.2 0.2 0.2 0.1 0.1 0.1 0.0 0.0 0.1
0.4 0.6 0.4 0.4 0.3 0.4 0.5 0.6 1.1 1.7 1.3 0.2 0.1 0.2 0.1 0.1 0.1 0.1 0.1 0.2 0.2 0.3 0.1 0.1 0.2 0.2 0.3 0.3 0.3 0.3 0.3 0.2 0.2 0.2 0.2 0.2 0.1 0.1
0.5 0.7 0.7 0.5 0.6 0.4 0.5 0.6 0.8 1.3 1.8 0.6 0.3 0.2 0.2 0.3 0.2 0.0 0.0 0.1 0.2 0.1 0.2 0.1 0.3 0.3 0.4 0.4 0.4 0.4 0.4 0.4 0.3 0.3 0.3 0.3 0.2 0.2
1.0 0.8 0.8 0.7 0.9 0.8 0.7 0.7 0.8 0.9 1.6 1.5 0.6 0.7 0.6 0.4 0.4 0.2 0.1 0.2 0.1 0.1 0.2 0.2 0.3 0.4 0.5 0.6 0.7 0.6 0.6 0.5 0.5 0.4 0.4 0.3 0.3 0.3
1.1 1.1 1.0 0.9 1.1 1.2 0.9 1.0 0.9 0.9 1.3 1.9 1.5 1.0 1.0 0.7 0.7 0.7 0.4 0.2 0.1 0.1 0.1 0.2 0.3 0.4 0.8 0.7 0.7 0.7 0.7 0.7 0.6 0.6 0.6 0.6 0.5 0.5
1.2 1.1 1.1 1.4 1.4 1.4 1.5 1.5 1.4 1.9 2.1 2.3 2.3 2.1 1.8 1.2 1.1 1.2 1.2 0.9 0.6 0.3 0.4 0.2 0.4 0.5 0.5 0.3 0.4 0.5 0.6 0.7 1.0 1.0 1.1 1.0 0.9 0.8
1.5 1.5 1.7 1.6 1.5 1.7 2.1 2.7 3.0 3.6 3.9 4.5 4.2 3.2 1.9 1.5 1.3 1.1 1.9 1.7 1.3 0.7 0.9 0.6 0.9 0.8 0.6 0.3 0.4 0.3 0.7 1.0 1.1 1.2 1.4 1.5 1.4 1.2
2.2 2.0 2.0 2.0 1.9 1.8 1.7 2.1 3.5 5.4 6.6 6.7 5.0 3.3 1.8 1.2 1.4 1.7 2.6 3.4 2.7 0.9 1.4 0.9 0.7 1.1 1.1 0.5 0.6 0.6 0.9 1.2 1.3 1.5 1.7 1.7 1.8 1.5
2.7 2.9 2.9 2.4 2.3 2.2 2.1 2.1 2.4 3.0 4.0 4.7 4.8 2.8 1.8 1.7 2.7 3.8 3.9 4.2 3.4 1.7 1.9 2.4 1.2 1.3 1.2 1.0 0.8 0.9 0.7 1.0 1.3 1.7 1.9 2.1 2.0 1.7
3.2 2.7 2.5 2.3 2.2 2.9 3.3 3.8 2.7 2.1 1.5 1.9 2.3 2.1 2.0 1.9 3.3 4.9 4.9 4.4 2.6 1.5 1.6 3.3 1.9 1.6 1.6 1.2 1.1 0.9 1.2 1.3 1.7 2.1 2.2 2.2 2.2 2.3
2.5 2.2 2.2 2.2 2.4 3.6 5.1 5.4 3.2 1.9 1.3 1.5 2.0 2.3 2.3 2.7 3.1 5.8 6.9 7.1 6.3 2.8 1.7 3.3 2.7 2.6 2.0 2.0 1.2 1.2 1.4 1.8 1.4 1.5 1.8 1.9 2.0 2.2
2.4 1.8 1.8 2.4 3.2 4.7 5.7 5.8 5.1 3.2 2.9 2.0 1.7 1.5 1.9 1.7 2.0 3.8 6.5 10.1 9.4 6.5 2.4 3.6 3.9 4.7 6.2 2.9 1.8 1.7 1.6 1.4 1.9 1.8 1.5 1.6 2.1 2.7
3.1 2.4 1.6 2.7 4.0 5.0 5.1 5.2 5.2 5.3 4.7 4.1 3.3 3.0 2.7 2.5 2.1 2.3 3.9 8.3 12.0 9.1 3.7 6.9 9.0 7.1 9.9 6.3 3.5 2.4 2.5 2.4 1.9 2.0 2.2 2.4 2.8 4.4
4.4 3.2 2.9 3.7 4.5 4.4 4.4 4.2 4.9 5.5 5.8 5.6 4.9 4.3 3.7 3.9 3.5 3.2 3.6 4.2 5.8 6.7 4.7 8.0 14.5 11.1 13.3 11.4 6.6 4.8 4.3 3.5 3.6 4.3 3.9 4.0 4.7 4.6
4.5 4.1 4.4 4.7 4.6 4.3 3.8 4.0 4.4 5.4 6.2 6.5 6.0 4.8 4.3 4.2 4.2 4.3 4.1 3.9 4.3 4.4 4.4 5.2 9.7 10.9 14.0 14.6 9.6 6.0 5.8 5.4 4.6 5.8 5.5 5.5 5.6 5.8
4.9 4.3 4.1 3.9 4.1 4.1 3.8 4.4 4.5 5.3 6.4 6.9 6.6 5.8 5.2 5.5 5.8 5.6 6.2 6.0 7.0 6.5 5.4 5.2 6.4 10.3 13.1 10.3 10.4 9.9 6.8 8.0 7.2 7.4 7.7 7.3 6.3 6.2
6.6 5.7 4.8 4.4 4.5 4.9 4.8 4.6 5.1 5.3 7.0 6.8 7.5 7.8 7.0 6.9 6.8 6.9 8.5 9.1 9.6 7.5 6.8 6.1 6.0 7.1 8.9 10.7 12.2 9.3 7.7 7.9 8.9 10.2 11.6 11.2 7.4 5.5
7.3 7.3 5.5 4.9 5.3 5.3 5.7 6.2 6.2 6.9 7.4 8.1 8.7 9.0 9.4 9.2 8.8 8.1 9.1 10.4 10.4 8.4 8.1 7.6 8.8 10.4 10.6 9.4 8.6 10.1 10.1 10.2 10.6 11.3 12.9 15.1 12.1 6.7
7.7 6.8 5.7 5.6 5.9 6.0 6.2 6.8 7.3 7.1 7.8 9.2 10.0 10.7 11.7 11.2 10.3 10.0 10.1 10.3 9.9 9.1 8.6 8.9 11.7 16.5 17.2 12.1 8.4 8.6 12.4 13.2 12.2 12.4 13.3 15.8 17.6 11.0
6.5 6.7 6.8 6.4 6.5 6.7 7.1 7.5 7.6 7.7 8.8 9.2 10.1 11.6 12.7 13.5 12.5 11.3 10.4 10.8 11.2 10.2 9.3 8.7 10.5 15.4 20.7 17.7 13.8 10.5 9.4 14.5 16.7 17.2 14.8 12.4 10.3 7.0
6.5 6.7 7.2 7.5 7.7 7.8 7.9 8.2 8.8 9.2 9.3 10.7 11.1 11.9 13.3 15.2 14.4 12.4 12.0 11.4 12.4 12.6 11.7 9.3 8.5 10.2 15.2 18.6 16.7 11.9 11.2 9.8 12.6 19.5 19.6 18.5 15.4 12.9
6.4 6.9 7.1 7.6 8.1 8.5 9.0 9.2 9.5 9.5 10.0 11.0 11.7 12.2 12.9 15.0 15.4 14.1 13.7 13.6 12.7 12.1 11.6 9.9 9.8 11.4 14.6 18.0 14.9 10.6 10.4 10.0 9.6 9.2 12.0 16.9 26.8 28.5
7.6 7.6 7.4 7.8 8.1 8.7 9.5 9.8 9.9 9.7 9.9 11.4 12.6 13.0 13.6 14.3 14.1 14.7 14.8 14.3 14.3 13.5 12.8 12.2 10.7 10.9 11.6 12.2 12.8 11.1 10.2 10.0 9.9 10.8 12.4 11.5 10.1 12.0